| time (UTC) | temp F | wind direction | speed knots | gust knots | rain 1hr in | rain 24hr in | rain mn in | humidity % | barometer mb |
| 20260505023009 | 64 | 68 | 0.9 | 4.3 | 0.00 | 0.00 | 0.00 | 53 | 1008.9 |
| 20260505021505 | 64 | 76 | 0.9 | 3.5 | 0.00 | 0.00 | 0.00 | 53 | 1008.8 |
| 20260505020004 | 64 | 62 | 0.9 | 3.5 | 0.00 | 0.00 | 0.00 | 52 | 1008.9 |
| 20260505014501 | 65 | 51 | 0.9 | 3.5 | 0.00 | 0.00 | 0.00 | 51 | 1008.7 |
| 20260505013001 | 65 | 51 | 1.7 | 4.3 | 0.00 | 0.00 | 0.00 | 51 | 1008.7 |
| 20260505011608 | 66 | 60 | 1.7 | 4.3 | 0.00 | 0.00 | 0.00 | 50 | 1008.6 |
| 20260505004600 | 67 | 86 | 1.7 | 5.2 | 0.00 | 0.00 | 0.00 | 49 | 1008.3 |
| 20260505003057 | 67 | 69 | 2.6 | 7.0 | 0.00 | 0.00 | 0.00 | 49 | 1008.1 |
| 20260505001558 | 68 | 63 | 1.7 | 4.3 | 0.00 | 0.00 | 0.00 | 49 | 1008.0 |
| 20260505000114 | 68 | 84 | 1.7 | 5.2 | 0.00 | 0.00 | 0.00 | 50 | 1007.9 |
| 20260504234555 | 69 | 73 | 5.2 | 8.7 | 0.00 | 0.00 | 0.00 | 47 | 1007.7 |
| 20260504233106 | 70 | 119 | 4.3 | 7.8 | 0.00 | 0.00 | 0.00 | 45 | 1007.7 |
| 20260504231550 | 70 | 82 | 5.2 | 11.3 | 0.00 | 0.00 | 0.00 | 43 | 1007.8 |
| 20260504230049 | 71 | 88 | 5.2 | 10.4 | 0.00 | 0.00 | 0.00 | 43 | 1007.8 |
| 20260504224556 | 71 | 122 | 5.2 | 11.3 | 0.00 | 0.00 | 0.00 | 40 | 1007.7 |
| 20260504223109 | 72 | 95 | 3.5 | 12.2 | 0.00 | 0.00 | 0.00 | 41 | 1007.7 |
| 20260504221544 | 72 | 67 | 5.2 | 11.3 | 0.00 | 0.00 | 0.00 | 40 | 1007.9 |
| 20260504220043 | 72 | 114 | 4.3 | 13.0 | 0.00 | 0.00 | 0.00 | 37 | 1008.0 |
| 20260504214542 | 72 | 84 | 6.1 | 9.6 | 0.00 | 0.00 | 0.00 | 39 | 1008.1 |
| 20260504213051 | 72 | 84 | 6.1 | 11.3 | 0.00 | 0.00 | 0.00 | 40 | 1007.9 |
| 20260504211538 | 72 | 80 | 5.2 | 12.2 | 0.00 | 0.00 | 0.00 | 38 | 1008.0 |
| 20260504210040 | 72 | 57 | 4.3 | 8.7 | 0.00 | 0.00 | 0.00 | 38 | 1008.0 |
| 20260504204543 | 72 | 69 | 5.2 | 14.8 | 0.00 | 0.00 | 0.00 | 36 | 1008.2 |
| 20260504203038 | 72 | 156 | 7.0 | 17.4 | 0.00 | 0.00 | 0.00 | 35 | 1008.3 |
| 20260504201531 | 72 | 142 | 7.0 | 18.2 | 0.00 | 0.00 | 0.00 | 36 | 1008.6 |
| 20260504200031 | 72 | 117 | 7.0 | 14.8 | 0.00 | 0.00 | 0.00 | 36 | 1008.7 |
| 20260504194527 | 71 | 77 | 6.1 | 15.6 | 0.00 | 0.00 | 0.00 | 38 | 1008.9 |
| 20260504193025 | 71 | 56 | 4.3 | 14.8 | 0.00 | 0.00 | 0.00 | 38 | 1008.9 |
| 20260504191521 | 71 | 65 | 4.3 | 13.0 | 0.00 | 0.00 | 0.00 | 38 | 1009.3 |
| 20260504190017 | 70 | 61 | 8.7 | 14.8 | 0.00 | 0.00 | 0.00 | 38 | 1009.3 |
| 20260504184517 | 70 | 9 | 6.1 | 13.9 | 0.00 | 0.00 | 0.00 | 37 | 1009.4 |
| 20260504183011 | 70 | 75 | 5.2 | 15.6 | 0.00 | 0.00 | 0.00 | 37 | 1009.7 |
| 20260504181513 | 70 | 118 | 6.1 | 13.9 | 0.00 | 0.00 | 0.00 | 36 | 1009.9 |
| 20260504180008 | 69 | 135 | 8.7 | 16.5 | 0.00 | 0.00 | 0.00 | 36 | 1010.2 |
| 20260504174504 | 70 | 141 | 8.7 | 12.2 | 0.00 | 0.00 | 0.00 | 35 | 1010.4 |
| 20260504173102 | 69 | 117 | 6.1 | 15.6 | 0.00 | 0.00 | 0.00 | 36 | 1010.6 |
| 20260504171556 | 69 | 87 | 4.3 | 13.0 | 0.00 | 0.00 | 0.00 | 37 | 1010.6 |
| 20260504081523 | 48 | 360 | 3.5 | 7.8 | 0.00 | 0.00 | 0.00 | 71 | 1013.1 |
| 20260504044533 | 52 | 360 | 1.7 | 4.3 | 0.00 | 0.00 | 0.00 | 49 | 1012.7 |
| 20260504043024 | 52 | 360 | 1.7 | 4.3 | 0.00 | 0.00 | 0.00 | 48 | 1012.5 |
| 20260504041548 | 52 | 360 | 1.7 | 4.3 | 0.00 | 0.00 | 0.00 | 48 | 1012.3 |
| 20260504040103 | 52 | 360 | 2.6 | 4.3 | 0.00 | 0.00 | 0.00 | 48 | 1012.3 |
| 20260504034608 | 53 | 360 | 2.6 | 5.2 | 0.00 | 0.00 | 0.00 | 47 | 1012.2 |
| 20260504033043 | 52 | 360 | 1.7 | 5.2 | 0.00 | 0.00 | 0.00 | 47 | 1012.1 |
| 20260504031545 | 52 | 360 | 1.7 | 4.3 | 0.00 | 0.00 | 0.00 | 47 | 1012.1 |
| 20260504024538 | 53 | 360 | 0.9 | 4.3 | 0.00 | 0.00 | 0.00 | 46 | 1012.2 |